GW5851 Weather Reports


time (UTC)temp
C
wind
direction
speed
KPH
gust
KPH
rain 1hr
cm
rain 24hr
cm
rain mn
cm
humidity
%
barometer
mb
20260508220656 17 251 3.2 9.7 0.00 0.00 0.00 40 973.0
20260508220155 17 195 3.2 9.7 0.00 0.00 0.00 39 973.0
20260508215655 17 245 6.4 11.3 0.00 0.00 0.00 38 973.0
20260508215155 17 262 4.8 6.4 0.00 0.00 0.00 40 974.0
20260508214655 18 278 6.4 11.3 0.00 0.00 0.00 36 973.0
20260508214155 19 300 9.7 12.9 0.00 0.00 0.00 37 973.0
20260508213655 18 224 1.6 3.2 0.00 0.00 0.00 38 973.0
20260508213155 17 178 4.8 6.4 0.00 0.00 0.00 40 973.0
20260508212656 17 183 1.6 6.4 0.00 0.00 0.00 40 973.0
20260508212156 17 217 3.2 9.7 0.00 0.00 0.00 38 974.0
20260508211655 18 268 4.8 17.7 0.00 0.00 0.00 38 974.0
20260508211155 19 296 6.4 12.9 0.00 0.00 0.00 37 974.0
20260508210655 18 244 3.2 9.7 0.00 0.00 0.00 36 974.0
20260508210155 17 196 6.4 9.7 0.00 0.00 0.00 38 973.0
20260508205655 17 208 8.0 14.5 0.00 0.00 0.00 36 973.0
20260508205155 17 263 6.4 12.9 0.00 0.00 0.00 36 974.0
20260508204655 17 229 8.0 12.9 0.00 0.00 0.00 38 974.0
20260508204155 17 223 4.8 16.1 0.00 0.00 0.00 35 974.0
20260508203655 17 199 8.0 12.9 0.00 0.00 0.00 36 974.0
20260508203155 18 289 6.4 12.9 0.00 0.00 0.00 38 974.0
20260508202655 19 273 11.3 16.1 0.00 0.00 0.00 37 974.0
20260508202155 19 267 6.4 14.5 0.00 0.00 0.00 37 974.0
20260508201655 17 196 3.2 4.8 0.00 0.00 0.00 42 974.0
20260508201156 17 214 1.6 6.4 0.00 0.00 0.00 40 974.0
20260508200655 17 267 4.8 14.5 0.00 0.00 0.00 39 974.0
20260508200155 18 222 4.8 6.4 0.00 0.00 0.00 38 974.0
20260508195655 18 252 6.4 11.3 0.00 0.00 0.00 41 974.0
20260508195155 19 280 9.7 16.1 0.00 0.00 0.00 38 974.0
20260508194655 19 244 9.7 14.5 0.00 0.00 0.00 37 974.0
20260508194156 19 270 8.0 11.3 0.00 0.00 0.00 38 975.0
20260508193655 18 128 4.8 6.4 0.00 0.00 0.00 41 975.0
20260508193156 18 293 6.4 11.3 0.00 0.00 0.00 35 975.0
20260508192655 18 306 3.2 14.5 0.00 0.00 0.00 43 975.0
20260508192155 17 286 8.0 12.9 0.00 0.00 0.00 43 975.0
20260508191655 17 260 4.8 11.3 0.00 0.00 0.00 35 975.0
20260508191155 17 209 1.6 9.7 0.00 0.00 0.00 40 975.0
20260508190655 17 299 11.3 12.9 0.00 0.00 0.00 39 975.0
20260508190157 17 293 8.0 14.5 0.00 0.00 0.00 35 975.0
20260508185655 17 276 4.8 4.8 0.00 0.00 0.00 43 975.0
20260508185155 17 191 3.2 6.4 0.00 0.00 0.00 36 975.0
20260508184655 17 259 1.6 6.4 0.00 0.00 0.00 36 975.0
20260508184155 17 151 0.0 3.2 0.00 0.00 0.00 39 976.0
20260508183656 17 226 6.4 9.7 0.00 0.00 0.00 37 976.0
20260508183155 18 242 6.4 20.9 0.00 0.00 0.00 38 976.0
20260508182656 18 202 4.8 9.7 0.00 0.00 0.00 39 976.0
20260508182155 18 276 6.4 9.7 0.00 0.00 0.00 41 975.0
20260508181655 18 146 1.6 3.2 0.00 0.00 0.00 38 976.0
20260508181155 17 265 3.2 4.8 0.00 0.00 0.00 44 976.0
20260508180655 17 252 9.7 14.5 0.00 0.00 0.00 41 976.0
20260508180155 17 222 8.0 9.7 0.00 0.00 0.00 41 976.0
20260508175655 17 161 9.7 11.3 0.00 0.00 0.00 40 976.0
20260508175156 17 253 6.4 9.7 0.00 0.00 0.00 43 976.0
20260508174655 17 212 6.4 20.9 0.00 0.00 0.00 40 976.0
20260508174156 17 246 8.0 11.3 0.00 0.00 0.00 38 976.0
20260508173656 17 322 8.0 12.9 0.00 0.00 0.00 41 976.0
20260508173155 17 224 8.0 20.9 0.00 0.00 0.00 42 976.0
20260508172656 17 217 4.8 9.7 0.00 0.00 0.00 39 976.0
20260508172155 17 244 3.2 12.9 0.00 0.00 0.00 39 977.0
20260508171656 17 163 6.4 11.3 0.00 0.00 0.00 39 976.0
20260508171155 17 248 6.4 14.5 0.00 0.00 0.00 42 977.0
20260508170655 16 230 3.2 4.8 0.00 0.00 0.00 45 977.0
20260508170155 16 170 9.7 14.5 0.00 0.00 0.00 43 977.0
20260508165655 17 268 6.4 6.4 0.00 0.00 0.00 41 977.0
20260508165155 17 144 12.9 14.5 0.00 0.00 0.00 42 977.0
20260508164655 17 207 3.2 4.8 0.00 0.00 0.00 39 977.0
20260508164155 16 195 1.6 9.7 0.00 0.00 0.00 49 977.0
20260508163655 16 29 3.2 3.2 0.00 0.00 0.00 45 977.0
20260508163155 16 223 9.7 16.1 0.00 0.00 0.00 45 977.0
20260508162655 16 261 6.4 11.3 0.00 0.00 0.00 42 978.0
20260508162155 16 287 4.8 11.3 0.00 0.00 0.00 41 977.0
20260508161655 15 232 3.2 4.8 0.00 0.00 0.00 45 977.0
20260508161157 15 248 8.0 14.5 0.00 0.00 0.00 42 977.0
20260508160655 15 278 4.8 11.3 0.00 0.00 0.00 44 978.0
20260508160157 15 283 8.0 14.5 0.00 0.00 0.00 47 977.0
20260508155655 16 196 1.6 12.9 0.00 0.00 0.00 45 978.0
20260508155155 16 97 1.6 11.3 0.00 0.00 0.00 46 977.0
20260508154655 15 172 3.2 9.7 0.00 0.00 0.00 46 977.0
20260508154155 16 231 6.4 9.7 0.00 0.00 0.00 43 978.0
20260508153655 16 206 3.2 3.2 0.00 0.00 0.00 47 978.0
20260508153155 16 51 3.2 3.2 0.00 0.00 0.00 48 978.0
20260508152655 16 145 0.0 3.2 0.00 0.00 0.00 50 978.0
20260508152156 15 256 3.2 3.2 0.00 0.00 0.00 46 978.0
20260508151655 16 149 3.2 4.8 0.00 0.00 0.00 47 978.0
20260508151156 16 183 0.0 4.8 0.00 0.00 0.00 46 978.0
20260508150656 16 125 0.0 1.6 0.00 0.00 0.00 46 978.0
20260508150155 15 122 1.6 4.8 0.00 0.00 0.00 44 978.0
20260508145656 15 172 0.0 3.2 0.00 0.00 0.00 46 978.0
20260508145155 16 97 1.6 6.4 0.00 0.00 0.00 45 978.0
20260508144655 15 155 0.0 3.2 0.00 0.00 0.00 50 978.0
20260508144155 15 154 3.2 3.2 0.00 0.00 0.00 52 978.0
20260508143206 14 234 1.6 4.8 0.00 0.00 0.00 50 978.0
20260508142215 14 335 3.2 4.8 0.00 0.00 0.00 55 978.0
20260508141655 13 158 1.6 1.6 0.00 0.00 0.00 55 978.0
20260508141155 13 86 1.6 4.8 0.00 0.00 0.00 57 978.0
20260508140656 13 13 1.6 3.2 0.00 0.00 0.00 59 978.0
20260508140155 13 261 4.8 6.4 0.00 0.00 0.00 61 978.0
20260508135655 13 134 1.6 3.2 0.00 0.00 0.00 62 978.0
20260508135155 12 338 1.6 4.8 0.00 0.00 0.00 63 978.0
20260508134655 12 296 3.2 4.8 0.00 0.00 0.00 63 978.0
20260508134155 12 278 3.2 4.8 0.00 0.00 0.00 66 978.0
20260508133655 12 309 4.8 4.8 0.00 0.00 0.00 69 978.0
20260508133155 12 28 1.6 3.2 0.00 0.00 0.00 67 979.0
20260508132655 12 259 1.6 6.4 0.00 0.00 0.00 68 978.0
20260508132155 12 41 1.6 4.8 0.00 0.00 0.00 67 978.0
20260508131655 12 5 3.2 9.7 0.00 0.00 0.00 65 978.0
20260508131156 12 312 1.6 3.2 0.00 0.00 0.00 69 978.0
20260508130655 11 184 0.0 1.6 0.00 0.00 0.00 71 978.0
20260508130157 11 287 3.2 4.8 0.00 0.00 0.00 70 978.0
20260508125656 11 263 3.2 4.8 0.00 0.00 0.00 73 978.0
20260508125155 10 215 1.6 3.2 0.00 0.00 0.00 75 978.0
20260508124655 10 222 3.2 3.2 0.00 0.00 0.00 76 978.0
20260508124155 10 268 6.4 6.4 0.00 0.00 0.00 75 978.0
20260508123656 10 244 3.2 6.4 0.00 0.00 0.00 75 978.0
20260508123156 10 269 3.2 4.8 0.00 0.00 0.00 77 978.0
20260508122655 9 198 1.6 3.2 0.00 0.00 0.00 79 978.0
20260508122156 9 225 1.6 4.8 0.00 0.00 0.00 79 978.0
20260508121655 8 320 1.6 3.2 0.00 0.00 0.00 81 978.0
20260508121155 8 209 3.2 4.8 0.00 0.00 0.00 81 978.0
20260508120655 8 260 3.2 6.4 0.00 0.00 0.00 83 978.0
20260508120155 8 193 1.6 3.2 0.00 0.00 0.00 87 978.0
20260508115657 7 233 1.6 3.2 0.00 0.00 0.00 91 978.0
20260508115155 7 243 1.6 3.2 0.00 0.00 0.00 94 978.0
20260508114656 7 178 1.6 1.6 0.00 0.00 0.00 95 978.0
20260508114155 6 168 1.6 3.2 0.00 0.00 0.00 96 978.0
20260508113656 6 168 0.0 1.6 0.00 0.00 0.00 96 978.0
20260508113156 6 169 1.6 1.6 0.00 0.00 0.00 96 978.0
20260508112656 6 171 0.0 0.0 0.00 0.00 0.00 97 978.0
20260508112156 5 171 0.0 0.0 0.00 0.00 0.00 97 978.0
20260508111655 4 171 0.0 0.0 0.00 0.00 0.00 96 978.0
20260508111156 3 171 0.0 0.0 0.00 0.00 0.00 96 978.0
20260508110655 3 171 0.0 0.0 0.00 0.00 0.00 96 977.0
20260508110155 2 171 0.0 0.0 0.00 0.00 0.00 96 978.0
20260508105655 2 171 0.0 0.0 0.00 0.00 0.00 96 977.0
20260508105155 2 171 0.0 0.0 0.00 0.00 0.00 96 978.0
20260508104658 2 171 0.0 1.6 0.00 0.00 0.00 96 978.0
20260508104155 2 171 0.0 0.0 0.00 0.00 0.00 96 977.0
20260508103655 2 171 0.0 0.0 0.00 0.00 0.00 95 978.0
20260508103155 2 171 0.0 0.0 0.00 0.00 0.00 95 977.0
20260508102655 2 171 0.0 0.0 0.00 0.00 0.00 95 977.0
20260508102200 2 171 0.0 0.0 0.00 0.00 0.00 95 977.0
20260508101655 2 171 0.0 0.0 0.00 0.00 0.00 95 977.0
20260508101157 2 171 0.0 0.0 0.00 0.00 0.00 95 977.0
20260508100655 2 171 0.0 0.0 0.00 0.00 0.00 95 978.0
20260508100156 2 171 0.0 0.0 0.00 0.00 0.00 95 977.0
20260508095655 2 171 0.0 0.0 0.00 0.00 0.00 95 977.0
20260508095156 2 171 0.0 0.0 0.00 0.00 0.00 94 977.0
20260508094655 2 171 0.0 0.0 0.00 0.00 0.00 94 977.0
20260508094155 2 171 0.0 0.0 0.00 0.00 0.00 94 977.0
20260508093655 2 171 0.0 0.0 0.00 0.00 0.00 94 978.0
20260508093155 2 171 0.0 0.0 0.00 0.00 0.00 93 977.0
20260508092655 2 171 0.0 0.0 0.00 0.00 0.00 94 977.0
20260508092155 2 171 0.0 0.0 0.00 0.00 0.00 94 977.0
20260508091655 2 171 0.0 0.0 0.00 0.00 0.00 94 977.0
20260508091155 2 171 0.0 0.0 0.00 0.00 0.00 93 977.0
20260508090655 3 171 0.0 0.0 0.00 0.00 0.00 93 977.0
20260508090155 3 171 0.0 0.0 0.00 0.00 0.00 93 977.0
20260508085659 3 171 0.0 0.0 0.00 0.00 0.00 93 977.0
20260508085155 3 171 0.0 0.0 0.00 0.00 0.00 92 977.0
20260508084655 3 171 0.0 0.0 0.00 0.00 0.00 92 978.0
20260508084157 3 171 0.0 0.0 0.00 0.00 0.00 92 977.0
20260508083657 3 171 0.0 0.0 0.00 0.00 0.00 92 977.0
20260508083157 3 171 0.0 0.0 0.00 0.00 0.00 92 977.0
20260508082657 3 171 0.0 0.0 0.00 0.00 0.00 91 977.0
20260508082159 3 171 0.0 0.0 0.00 0.00 0.00 91 977.0
20260508081700 4 171 0.0 0.0 0.00 0.00 0.00 91 978.0
20260508081157 4 171 0.0 0.0 0.00 0.00 0.00 91 977.0
20260508080657 4 171 0.0 0.0 0.00 0.00 0.00 90 977.0
20260508080159 4 171 0.0 0.0 0.00 0.00 0.00 90 978.0
20260508075657 5 163 0.0 0.0 0.00 0.00 0.00 90 978.0
20260508075159 5 163 0.0 0.0 0.00 0.00 0.00 90 978.0
20260508074659 5 163 0.0 0.0 0.00 0.00 0.00 90 978.0
20260508074157 5 162 0.0 0.0 0.00 0.00 0.00 90 978.0
20260508073659 5 162 0.0 0.0 0.00 0.00 0.00 90 978.0
20260508073155 5 166 0.0 0.0 0.00 0.00 0.00 90 978.0
20260508072657 5 166 0.0 0.0 0.00 0.00 0.00 90 978.0
20260508072157 5 135 0.0 0.0 0.00 0.00 0.00 91 978.0
20260508071656 5 236 0.0 3.2 0.00 0.00 0.00 91 978.0
20260508071158 5 194 0.0 0.0 0.00 0.00 0.00 91 978.0
20260508070658 5 194 0.0 0.0 0.00 0.00 0.00 91 978.0
20260508070159 5 194 0.0 0.0 0.00 0.00 0.00 91 978.0
20260508065656 5 195 0.0 1.6 0.00 0.00 0.00 91 978.0
20260508065156 4 213 0.0 0.0 0.00 0.00 0.00 91 978.0
20260508064656 4 177 0.0 0.0 0.00 0.00 0.00 91 978.0
20260508064157 4 177 0.0 0.0 0.00 0.00 0.00 91 978.0
20260508063659 4 191 0.0 0.0 0.00 0.00 0.00 91 978.0
20260508063159 4 192 0.0 0.0 0.00 0.00 0.00 90 978.0
20260508062655 4 193 0.0 0.0 0.00 0.00 0.00 90 978.0
20260508062159 4 191 0.0 0.0 0.00 0.00 0.00 89 978.0
20260508061655 4 191 0.0 0.0 0.00 0.00 0.00 89 978.0
20260508061158 4 192 0.0 0.0 0.00 0.00 0.00 89 978.0
20260508060701 5 190 0.0 0.0 0.00 0.00 0.00 89 978.0
20260508060158 5 190 0.0 0.0 0.00 0.00 0.00 89 978.0
20260508055657 5 170 0.0 0.0 0.00 0.00 0.00 88 978.0
20260508055157 5 170 0.0 0.0 0.00 0.00 0.00 88 978.0
20260508054659 5 170 0.0 0.0 0.00 0.00 0.00 88 978.0
20260508054158 5 170 0.0 0.0 0.00 0.00 0.00 88 978.0
20260508053659 5 170 0.0 0.0 0.00 0.00 0.00 87 978.0
20260508053158 5 170 0.0 0.0 0.00 0.00 0.00 87 978.0
20260508052656 5 170 0.0 0.0 0.00 0.00 0.00 87 978.0
20260508052157 5 170 0.0 0.0 0.00 0.00 0.00 87 978.0
20260508051656 5 170 0.0 0.0 0.00 0.00 0.00 86 978.0
20260508051157 5 170 0.0 0.0 0.00 0.00 0.00 85 978.0
20260508050657 5 170 0.0 0.0 0.00 0.00 0.00 84 978.0
20260508050155 5 170 0.0 0.0 0.00 0.00 0.00 84 978.0
20260508045655 5 170 0.0 0.0 0.00 0.00 0.00 84 978.0
20260508045155 5 170 0.0 0.0 0.00 0.00 0.00 84 978.0
20260508044655 5 170 0.0 1.6 0.00 0.00 0.00 84 978.0
20260508044155 5 170 0.0 0.0 0.00 0.00 0.00 83 978.0
20260508043656 5 170 0.0 0.0 0.00 0.00 0.00 83 978.0
20260508043157 5 170 0.0 0.0 0.00 0.00 0.00 83 978.0
20260508042655 5 170 0.0 0.0 0.00 0.00 0.00 82 978.0
20260508042155 5 170 0.0 0.0 0.00 0.00 0.00 82 978.0
20260508041655 6 170 0.0 0.0 0.00 0.00 0.00 82 978.0
20260508041158 5 177 0.0 1.6 0.00 0.00 0.00 82 978.0
20260508040659 5 168 0.0 1.6 0.00 0.00 0.00 81 978.0
20260508040158 6 167 0.0 0.0 0.00 0.00 0.00 80 978.0
20260508035657 6 167 0.0 0.0 0.00 0.00 0.00 78 978.0
20260508035155 6 169 0.0 0.0 0.00 0.00 0.00 76 978.0
20260508034656 7 169 0.0 0.0 0.00 0.00 0.00 75 978.0
20260508034157 7 169 0.0 0.0 0.00 0.00 0.00 74 978.0
20260508033655 7 167 0.0 1.6 0.00 0.00 0.00 74 978.0
20260508033159 7 168 0.0 1.6 0.00 0.00 0.00 73 978.0
20260508032659 7 166 0.0 0.0 0.00 0.00 0.00 72 978.0
20260508032159 8 171 1.6 1.6 0.00 0.00 0.00 72 978.0
20260508031657 8 176 0.0 1.6 0.00 0.00 0.00 71 978.0
20260508031155 8 178 0.0 1.6 0.00 0.00 0.00 71 978.0
20260508030659 8 178 0.0 0.0 0.00 0.00 0.00 70 978.0
20260508030155 8 171 0.0 1.6 0.00 0.00 0.00 70 978.0
20260508025655 8 167 1.6 1.6 0.00 0.00 0.00 69 978.0
20260508025159 8 174 0.0 1.6 0.00 0.00 0.00 68 978.0
20260508024655 8 179 0.0 0.0 0.00 0.00 0.00 67 978.0
20260508024155 8 198 0.0 1.6 0.00 0.00 0.00 67 978.0
20260508023655 8 191 0.0 1.6 0.00 0.00 0.00 66 978.0
20260508023157 8 194 0.0 0.0 0.00 0.00 0.00 66 978.0
20260508022655 9 265 1.6 3.2 0.00 0.00 0.00 65 978.0
20260508022156 9 209 1.6 4.8 0.00 0.00 0.00 64 978.0
20260508021655 10 203 0.0 3.2 0.00 0.00 0.00 62 978.0
20260508021155 10 185 1.6 6.4 0.00 0.00 0.00 60 978.0
20260508020656 10 253 1.6 3.2 0.00 0.00 0.00 58 978.0
20260508020156 10 194 1.6 3.2 0.00 0.00 0.00 56 978.0
20260508015656 10 232 6.4 6.4 0.00 0.00 0.00 56 978.0
20260508015155 10 241 3.2 4.8 0.00 0.00 0.00 56 978.0
20260508014655 10 257 3.2 3.2 0.00 0.00 0.00 55 978.0
20260508014155 10 232 1.6 11.3 0.00 0.00 0.00 54 978.0
20260508013655 10 288 4.8 6.4 0.00 0.00 0.00 53 978.0
20260508013158 10 258 6.4 11.3 0.00 0.00 0.00 52 978.0
20260508012656 10 196 0.0 1.6 0.00 0.00 0.00 53 978.0
20260508012156 10 268 4.8 6.4 0.00 0.00 0.00 52 978.0
20260508011656 10 277 4.8 12.9 0.00 0.00 0.00 51 978.0
20260508011200 10 291 4.8 11.3 0.00 0.00 0.00 51 978.0
20260508010655 10 320 3.2 14.5 0.00 0.00 0.00 51 978.0
20260508010157 10 55 1.6 4.8 0.00 0.00 0.00 49 978.0
20260508005656 10 288 6.4 11.3 0.00 0.00 0.00 48 978.0
20260508005155 10 263 6.4 9.7 0.00 0.00 0.00 48 978.0
20260508004656 10 275 6.4 11.3 0.00 0.00 0.00 49 978.0
20260508004157 10 254 3.2 11.3 0.00 0.00 0.00 48 977.0
20260508003656 10 279 8.0 9.7 0.00 0.00 0.00 50 977.0
20260508003155 10 206 0.0 1.6 0.00 0.00 0.00 48 978.0
20260508002655 10 232 1.6 3.2 0.00 0.00 0.00 48 977.0
20260508002157 10 286 1.6 1.6 0.00 0.00 0.00 47 977.0
20260508001656 10 277 3.2 4.8 0.00 0.00 0.00 47 977.0
20260508001159 11 267 3.2 4.8 0.00 0.00 0.00 45 977.0
20260508000655 11 268 1.6 6.4 0.00 0.00 0.00 44 977.0
20260508000158 11 274 4.8 6.4 0.00 0.00 0.00 44 977.0
20260507235656 11 335 4.8 4.8 0.00 0.00 0.00 44 977.0
20260507235158 11 206 1.6 9.7 0.00 0.00 0.00 43 977.0
20260507234655 11 264 3.2 3.2 0.00 0.00 0.00 45 977.0
20260507234155 11 278 4.8 9.7 0.00 0.00 0.00 44 978.0
20260507233655 11 260 4.8 11.3 0.00 0.00 0.00 43 978.0
20260507233155 12 217 8.0 12.9 0.00 0.00 0.00 42 977.0
20260507232656 12 273 12.9 16.1 0.00 0.00 0.00 42 978.0
20260507232155 12 256 4.8 9.7 0.00 0.00 0.00 43 977.0
20260507231656 12 300 9.7 12.9 0.00 0.00 0.00 42 978.0
20260507231159 12 282 3.2 9.7 0.00 0.00 0.00 41 977.0
20260507230657 12 283 4.8 4.8 0.00 0.00 0.00 44 977.0
20260507230156 12 280 6.4 9.7 0.00 0.00 0.00 41 977.0
20260507225655 12 283 4.8 6.4 0.00 0.00 0.00 43 978.0
20260507225156 12 273 6.4 11.3 0.00 0.00 0.00 43 977.0
20260507224656 12 236 4.8 12.9 0.00 0.00 0.00 43 978.0
20260507224155 12 263 6.4 9.7 0.00 0.00 0.00 43 978.0
20260507223655 12 277 4.8 9.7 0.00 0.00 0.00 43 978.0
20260507223155 12 208 1.6 6.4 0.00 0.00 0.00 42 978.0
20260507222655 12 274 6.4 9.7 0.00 0.00 0.00 43 978.0
20260507222155 12 248 4.8 11.3 0.00 0.00 0.00 40 978.0
20260507221656 13 271 1.6 3.2 0.00 0.00 0.00 42 978.0
20260507221155 13 243 6.4 11.3 0.00 0.00 0.00 40 978.0